"Pseudo-MPEC" for P112Yxd

Created 2020 Aug 10 16:07:11 UT using Find_Orb

Click here for an explanation of pseudo-MPECs

 
 Astrometry: 
     P112Yxd  C2020 07 21Z)@Xum_Q]hcdTcM(L:J%4PLkw`v^Astrometry^9?gYw'7md%0)YF51
     P112Yxd  C2020 07 21NV;j\VnaDEgiBMe'1$Fredacted;R8wH?4)mfTBvyXclick,mt*lF51
     P112Yxd  C2020 07 21as5i^pT=paUm/there\%WO,DVfor:@RmexplanationS8aMB-h;BF51

Station data:
(F51) Pan-STARRS 1, Haleakala  (N20.707235 W156.255910)  US/Hawaii.
   Observers N. Primak, A. Schultz, S. Watters, J. Thiel, T. Goggia. Measurer
   PS1 Science Consortium. 1.8-m Ritchey-Chrétien + CCD.

Orbital elements:  P112Yxd
   Perihelion 2021 Mar 29.313083 +/- 186 TT =  7:30:50 (JD 2459302.813083)
Epoch 2020 Jul 21.0 TT = JDT 2459051.5   Earth MOID: 0.7116   AutoNEOCP
M 261.52966735 +/- 70               (J2000 ecliptic)
n   0.39182334 +/- 0.264            Peri.  309.26118 +/- 100
a   1.84959160 +/- 0.832            Node    94.39059 +/- 32
e   0.1050825 +/- 0.286             Incl.   22.05597 +/- 25
P   2.52/918.76d           H 20.1   G  0.15   U 11.9  SR
q 1.65523179 +/- 0.806    Q 2.04395140 +/- 44.6
From 3 observations 2020 July 21 (39.1 min); mean residual 0".06
Residuals in arcseconds: 
200721 F51  .00   .08-    200721 F51  .00   .13+    200721 F51  .00   .04-    

Ephemerides (geocentric):
Date (UTC) HH   RA              Dec         delta   r     elong  mag " sig PA
---- -- -- --  -------------   -----------  ------ ------ -----  --- ---- ---
2020 08 10 16  18 48 31.299   -41 44 44.36  0.9927 1.8711 137.7 22.5  26d  30
2020 08 10 17  18 48 29.250   -41 45 05.35  0.9930 1.8711 137.7 22.5  26d  30
2020 08 10 18  18 48 27.207   -41 45 26.29  0.9932 1.8710 137.6 22.5  26d  30
2020 08 10 19  18 48 25.169   -41 45 47.20  0.9935 1.8710 137.6 22.5  26d  30
2020 08 10 20  18 48 23.136   -41 46 08.07  0.9937 1.8709 137.5 22.5  26d  30
2020 08 10 21  18 48 21.109   -41 46 28.90  0.9939 1.8708 137.5 22.5  26d  30
2020 08 10 22  18 48 19.087   -41 46 49.69  0.9942 1.8708 137.4 22.5  26d  30
2020 08 10 23  18 48 17.070   -41 47 10.45  0.9944 1.8707 137.4 22.5  26d  30
2020 08 11 00  18 48 15.059   -41 47 31.16  0.9947 1.8707 137.3 22.5  26d  30
2020 08 11 01  18 48 13.053   -41 47 51.83  0.9949 1.8706 137.3 22.5  26d  30
2020 08 11 02  18 48 11.052   -41 48 12.47  0.9952 1.8706 137.3 22.5  26d  30
2020 08 11 03  18 48 09.056   -41 48 33.06  0.9954 1.8705 137.2 22.5  26d  30
2020 08 11 04  18 48 07.066   -41 48 53.62  0.9957 1.8705 137.2 22.5  26d  30
2020 08 11 05  18 48 05.081   -41 49 14.14  0.9959 1.8704 137.1 22.5  26d  30
2020 08 11 06  18 48 03.102   -41 49 34.62  0.9962 1.8704 137.1 22.5  26d  30
2020 08 11 07  18 48 01.128   -41 49 55.06  0.9964 1.8703 137.0 22.5  26d  29
2020 08 11 08  18 47 59.159   -41 50 15.46  0.9966 1.8702 137.0 22.5  26d  29
2020 08 11 09  18 47 57.195   -41 50 35.82  0.9969 1.8702 137.0 22.5  26d  29
2020 08 11 10  18 47 55.237   -41 50 56.15  0.9971 1.8701 136.9 22.5  26d  29
2020 08 11 11  18 47 53.285   -41 51 16.44  0.9974 1.8701 136.9 22.5  26d  29
2020 08 11 12  18 47 51.337   -41 51 36.68  0.9976 1.8700 136.8 22.5  26d  29
2020 08 11 13  18 47 49.395   -41 51 56.89  0.9979 1.8700 136.8 22.5  26d  29
2020 08 11 14  18 47 47.458   -41 52 17.06  0.9981 1.8699 136.7 22.5  26d  29
2020 08 11 15  18 47 45.527   -41 52 37.19  0.9984 1.8699 136.7 22.5  26d  29
2020 08 11 16  18 47 43.601   -41 52 57.29  0.9986 1.8698 136.7 22.5  26d  29
2020 08 11 17  18 47 41.681   -41 53 17.34  0.9989 1.8698 136.6 22.5  26d  29
2020 08 11 18  18 47 39.765   -41 53 37.36  0.9991 1.8697 136.6 22.5  26d  29
2020 08 11 19  18 47 37.856   -41 53 57.34  0.9994 1.8696 136.5 22.5  26d  29
2020 08 11 20  18 47 35.951   -41 54 17.28  0.9996 1.8696 136.5 22.5  26d  29
2020 08 11 21  18 47 34.052   -41 54 37.18  0.9999 1.8695 136.4 22.5  26d  29
2020 08 11 22  18 47 32.158   -41 54 57.04  1.0001 1.8695 136.4 22.5  26d  29
2020 08 11 23  18 47 30.270   -41 55 16.87  1.0004 1.8694 136.4 22.5  26d  29
2020 08 12 00  18 47 28.387   -41 55 36.65  1.0006 1.8694 136.3 22.5  26d  29
2020 08 12 01  18 47 26.510   -41 55 56.40  1.0009 1.8693 136.3 22.5  26d  29
2020 08 12 02  18 47 24.638   -41 56 16.11  1.0011 1.8693 136.2 22.5  26d  29
2020 08 12 03  18 47 22.771   -41 56 35.79  1.0014 1.8692 136.2 22.5  26d  29
2020 08 12 04  18 47 20.910   -41 56 55.42  1.0016 1.8692 136.1 22.5  26d  29
2020 08 12 05  18 47 19.055   -41 57 15.02  1.0019 1.8691 136.1 22.5  26d  29
2020 08 12 06  18 47 17.204   -41 57 34.58  1.0021 1.8690 136.1 22.5  26d  29
2020 08 12 07  18 47 15.359   -41 57 54.10  1.0024 1.8690 136.0 22.5  26d  29
2020 08 12 08  18 47 13.520   -41 58 13.58  1.0027 1.8689 136.0 22.5  26d  29
2020 08 12 09  18 47 11.686   -41 58 33.02  1.0029 1.8689 135.9 22.5  26d  29
2020 08 12 10  18 47 09.857   -41 58 52.43  1.0032 1.8688 135.9 22.5  26d  29
2020 08 12 11  18 47 08.034   -41 59 11.80  1.0034 1.8688 135.8 22.5  26d  29
2020 08 12 12  18 47 06.217   -41 59 31.13  1.0037 1.8687 135.8 22.5  26d  29
2020 08 12 13  18 47 04.405   -41 59 50.43  1.0039 1.8687 135.8 22.5  26d  28
2020 08 12 14  18 47 02.598   -42 00 09.68  1.0042 1.8686 135.7 22.5  26d  28
2020 08 12 15  18 47 00.797   -42 00 28.90  1.0044 1.8686 135.7 22.5  26d  28